Weather History for K4BM - July, 2012

Change the Weather History Date:

Monday, July 16, 2012

  Actual Average (KAFF) Record (KAFF)
Temperature  
Mean Temperature 58 °F -  
Max Temperature 68 °F 82 °F 93 °F (2003)
Min Temperature 48 °F 52 °F 46 °F (2013)
Degree Days  
Heating Degree Days 7    
Growing Degree Days 8 (Base 50)    
Moisture  
Dew Point 37 °F    
Average Humidity 50    
Maximum Humidity 71    
Minimum Humidity 30    
Precipitation  
Precipitation 0.00 in - - ()
Sea Level Pressure  
Sea Level Pressure 30.52 in    
Wind  
Wind Speed 4 mph (SW)    
Max Wind Speed 10 mph    
Max Gust Speed 24 mph    
Visibility 10 miles    
Events Rain , Thunderstorm    
Averages and records for this station are not official NWS values.
T = Trace of Precipitation, MM = Missing Value Source: NWS Daily Summary

Daily Weather History Graph

Daily Weather History Graph

Search for Another Location

Airport or City:

Trip Planner

Search our weather history database for the weather conditions in past years. The results will help you decide how hot, cold, wet, or windy it might be!

Date:

Astronomy

Jul. 16, 2012 Rise Set
Actual Time 5:49 AM MDT 8:26 PM MDT
Civil Twilight 5:18 AM MDT 8:57 PM MDT
Nautical Twilight 4:39 AM MDT 9:35 PM MDT
Astronomical Twilight 3:56 AM MDT 10:19 PM MDT
Moon 3:36 AM MDT (7/16) 6:33 PM MDT (7/16)
Length of Visible Light 15h 38m
Length of Day
14h 36m
Waning Crescent, 6% of the Moon is Illuminated
Jul 16
Waning Crescent
Jul 18
New
Jul 26
First Quarter
Aug 1
Full
Aug 9
Last Quarter

Hourly Weather History & Observations

Time (MDT) Temp. Dew Point Humidity Pressure Visibility Wind Dir Wind Speed Gust Speed Precip Events Conditions
7:05 AM 51.8 °F 35.6 °F 54% 30.55 in 10.0 mi Calm Calm - N/A   Clear
7:25 AM 53.6 °F 35.6 °F 51% 30.55 in 10.0 mi Calm Calm - N/A   Clear
7:45 AM 53.6 °F 35.6 °F 51% 30.55 in 10.0 mi WSW 4.6 mph - N/A   Clear
8:05 AM 53.6 °F 35.6 °F 51% 30.55 in 10.0 mi WSW 4.6 mph - N/A   Clear
8:25 AM 53.6 °F 37.4 °F 54% 30.56 in 10.0 mi WSW 3.5 mph - N/A   Clear
8:45 AM 55.4 °F 37.4 °F 51% 30.56 in 10.0 mi Calm Calm - N/A   Clear
9:05 AM 53.6 °F 37.4 °F 54% 30.56 in 10.0 mi West 6.9 mph - N/A   Clear
9:25 AM 55.4 °F 35.6 °F 47% 30.56 in 10.0 mi WNW 5.8 mph - N/A   Clear
9:45 AM 55.4 °F 37.4 °F 51% 30.56 in 10.0 mi WNW 4.6 mph - N/A   Clear
10:05 AM 59.0 °F 37.4 °F 45% 30.55 in 10.0 mi North 3.5 mph - N/A   Clear
10:25 AM 59.0 °F 37.4 °F 45% 30.55 in 10.0 mi Calm Calm - N/A   Clear
10:45 AM 59.0 °F 35.6 °F 42% 30.55 in 10.0 mi Calm Calm - N/A   Clear
11:05 AM 60.8 °F 37.4 °F 42% 30.55 in 10.0 mi Calm Calm - N/A   Clear
11:25 AM 62.6 °F 37.4 °F 39% 30.54 in 10.0 mi West 3.5 mph - N/A   Scattered Clouds
11:38 AM 64.4 °F 39.2 °F 40% 30.54 in 10.0 mi SSW 5.8 mph - N/A   Scattered Clouds
12:05 PM 66.2 °F 39.2 °F 37% 30.54 in 10.0 mi SW 3.5 mph - N/A   Clear
12:25 PM 66.2 °F 37.4 °F 35% 30.53 in 10.0 mi SSW 4.6 mph - N/A   Clear
12:45 PM 68.0 °F 35.6 °F 30% 30.52 in 10.0 mi WSW 3.5 mph - N/A   Clear
1:05 PM 68.0 °F 37.4 °F 33% 30.52 in 10.0 mi SSW 4.6 mph - N/A Thunderstorm Thunderstorm
1:25 PM 68.0 °F 35.6 °F 30% 30.51 in 10.0 mi SSW 4.6 mph - N/A Thunderstorm Mostly Cloudy
1:45 PM 66.2 °F 37.4 °F 35% 30.50 in 10.0 mi South 10.4 mph 20.7 mph N/A Thunderstorm Mostly Cloudy
2:05 PM 60.8 °F 35.6 °F 39% 30.50 in 10.0 mi South 6.9 mph 17.3 mph N/A Thunderstorm Mostly Cloudy
2:25 PM 60.8 °F 35.6 °F 39% 30.49 in 10.0 mi South 9.2 mph 17.3 mph N/A   Overcast
2:45 PM 60.8 °F 32.0 °F 34% 30.49 in 10.0 mi South 3.5 mph 24.2 mph N/A Thunderstorm Mostly Cloudy
3:05 PM 62.6 °F 32.0 °F 32% 30.49 in 10.0 mi Calm Calm - N/A Thunderstorm Scattered Clouds
3:25 PM 60.8 °F 35.6 °F 39% 30.49 in 10.0 mi East 8.1 mph - N/A Thunderstorm Clear
3:45 PM 60.8 °F 35.6 °F 39% 30.49 in 10.0 mi SE 5.8 mph - N/A Thunderstorm Scattered Clouds
4:05 PM 57.2 °F 37.4 °F 48% 30.50 in 10.0 mi Calm Calm - N/A   Mostly Cloudy
4:25 PM 53.6 °F 41.0 °F 62% 30.50 in 7.0 mi SSW 5.8 mph - N/A Rain Rain
4:45 PM 51.8 °F 42.8 °F 71% 30.50 in 10.0 mi South 5.8 mph - N/A Rain Light Rain
5:05 PM 53.6 °F 41.0 °F 62% 30.49 in 10.0 mi SSW 10.4 mph 16.1 mph N/A   Overcast
5:25 PM 53.6 °F 37.4 °F 54% 30.49 in 10.0 mi SSW 9.2 mph - N/A   Overcast
5:45 PM 53.6 °F 37.4 °F 54% 30.49 in 10.0 mi SSW 6.9 mph - N/A   Overcast
6:05 PM 53.6 °F 35.6 °F 51% 30.49 in 10.0 mi South 5.8 mph - N/A   Overcast
6:25 PM 53.6 °F 35.6 °F 51% 30.48 in 10.0 mi SSW 5.8 mph - N/A   Mostly Cloudy
6:45 PM 53.6 °F 35.6 °F 51% 30.48 in 10.0 mi South 6.9 mph - N/A   Mostly Cloudy
7:05 PM 53.6 °F 35.6 °F 51% 30.48 in 10.0 mi WSW 5.8 mph - N/A   Mostly Cloudy
7:25 PM 53.6 °F 35.6 °F 51% 30.50 in 10.0 mi West 6.9 mph - N/A   Scattered Clouds
7:45 PM 50.0 °F 39.2 °F 66% 30.51 in 10.0 mi West 9.2 mph - N/A   Mostly Cloudy
8:05 PM 50.0 °F 39.2 °F 66% 30.51 in 10.0 mi West 5.8 mph - N/A   Scattered Clouds
8:25 PM 50.0 °F 37.4 °F 62% 30.51 in 10.0 mi Calm Calm - N/A   Clear
8:45 PM 50.0 °F 39.2 °F 66% 30.51 in 10.0 mi NE 5.8 mph - N/A   Clear
9:05 PM 48.2 °F 37.4 °F 66% 30.51 in 10.0 mi NE 6.9 mph - N/A   Clear
9:25 PM 48.2 °F 37.4 °F 66% 30.51 in 10.0 mi NNE 9.2 mph - N/A   Scattered Clouds
9:45 PM 48.2 °F 37.4 °F 66% 30.52 in 10.0 mi North 5.8 mph - N/A   Scattered Clouds
10:25 PM 50.0 °F 37.4 °F 62% 30.52 in 10.0 mi Calm Calm - N/A   Clear
10:45 PM 50.0 °F 37.4 °F 62% 30.52 in 10.0 mi Calm Calm - N/A   Scattered Clouds
11:05 PM 51.8 °F 35.6 °F 54% 30.51 in 10.0 mi West 3.5 mph - N/A   Overcast
11:25 PM 50.0 °F 37.4 °F 62% 30.50 in 10.0 mi WSW 3.5 mph - N/A   Mostly Cloudy
11:45 PM 50.0 °F 37.4 °F 62% 30.49 in 10.0 mi WSW 5.8 mph - N/A   Scattered Clouds